Tracking 19792 objects as of 16-Jul-2019
HD Live streaming from Space Station
objects crossing your sky now

COSMOS 1275 DEB

Track COSMOS 1275 DEB now!
10-day predictions


NORAD ID: 12674
Int'l Code: 1981-053AE
Perigee: 923.2 km
Apogee: 1,076.5 km
Inclination: 82.9 °
Period: 105.0 minutes
Semi major axis: 7370 km
RCS: 0.117 m2 (medium)
Launch date: June 4, 1981
Source: Commonwealth of Independent States (former USSR) (CIS)
Launch site: PLESETSK MISSILE AND SPACE COMPLEX (PKMTR)

Note: This is SATELLITE DEBRIS
aabbcc
Your satellite tracking list
Your tracking list is empty




NASA's NSSDC Master Catalog

Two Line Element Set (TLE):
1 12674U 81053AE  19196.65544159 +.00000113 +00000-0 +10358-3 0  9997
2 12674 082.9367 075.2125 0103993 172.2771 217.4092 13.71904793892830
Source of the keplerian elements: AFSPC